Time,TemperatureF,DewpointF,PressureIn,WindDirection,WindDirectionDegrees,WindSpeedMPH,WindSpeedGustMPH,Humidity,HourlyPrecipIn,Conditions,Clouds,dailyrainin,SoftwareType,DateUTC
2013-08-21 00:02:00,75.0,64.0,-100.00,SSW,200,4.0,7.0,70,0.00,,,-99.99,,2013-08-21 05:02:00,
2013-08-21 00:13:00,75.0,64.0,-100.00,SSW,200,4.0,7.0,70,0.00,,,-99.99,,2013-08-21 05:13:00,
2013-08-21 00:52:00,73.0,65.0,-100.00,SSW,195,4.0,6.0,74,0.00,,,-99.99,,2013-08-21 05:52:00,
2013-08-21 01:02:00,73.0,65.0,-100.00,SSW,195,4.0,6.0,74,0.00,,,-99.99,,2013-08-21 06:02:00,
2013-08-21 01:12:00,73.0,65.0,-100.00,SSW,195,4.0,6.0,74,0.00,,,-99.99,,2013-08-21 06:12:00,
2013-08-21 01:52:00,72.0,65.0,-100.00,South,190,4.0,6.0,78,0.00,,,-99.99,,2013-08-21 06:52:00,
2013-08-21 02:02:00,72.0,65.0,-100.00,South,190,4.0,6.0,78,0.00,,,-99.99,,2013-08-21 07:02:00,
2013-08-21 02:11:00,72.0,65.0,-100.00,South,190,4.0,6.0,78,0.00,,,-99.99,,2013-08-21 07:11:00,
2013-08-21 03:53:00,70.0,65.0,-100.00,South,190,2.0,6.0,84,0.00,,,-99.99,,2013-08-21 08:53:00,
2013-08-21 04:01:00,70.0,65.0,-100.00,South,190,2.0,6.0,84,0.00,,,-99.99,,2013-08-21 09:01:00,
2013-08-21 04:11:00,70.0,65.0,-100.00,South,190,2.0,6.0,84,0.00,,,-99.99,,2013-08-21 09:11:00,
2013-08-21 04:54:00,71.0,65.0,-100.00,SSW,195,3.0,6.0,84,0.00,,,-99.99,,2013-08-21 09:54:00,
2013-08-21 05:03:00,71.0,65.0,-100.00,SSW,195,3.0,6.0,84,0.00,,,-99.99,,2013-08-21 10:03:00,
2013-08-21 05:13:00,71.0,65.0,-100.00,SSW,195,3.0,6.0,84,0.00,,,-99.99,,2013-08-21 10:13:00,
2013-08-21 05:53:00,72.0,65.0,-100.00,SSW,205,4.0,7.0,80,0.00,,,-99.99,,2013-08-21 10:53:00,
2013-08-21 06:03:00,72.0,65.0,-100.00,SSW,205,4.0,7.0,80,0.00,,,-99.99,,2013-08-21 11:03:00,
2013-08-21 06:12:00,72.0,65.0,-100.00,SSW,205,4.0,7.0,80,0.00,,,-99.99,,2013-08-21 11:12:00,
2013-08-21 06:53:00,71.0,65.0,-100.00,South,190,7.0,10.0,82,0.00,,,-99.99,,2013-08-21 11:53:00,
2013-08-21 07:01:00,71.0,65.0,-100.00,South,190,7.0,10.0,82,0.00,,,-99.99,,2013-08-21 12:01:00,
2013-08-21 07:12:00,71.0,65.0,-100.00,South,190,7.0,10.0,82,0.00,,,-99.99,,2013-08-21 12:12:00,
2013-08-21 07:52:00,71.0,67.0,-100.00,South,180,4.0,7.0,85,0.00,,,-99.99,,2013-08-21 12:52:00,
2013-08-21 08:02:00,71.0,67.0,-100.00,South,180,4.0,7.0,85,0.00,,,-99.99,,2013-08-21 13:02:00,
2013-08-21 08:12:00,71.0,67.0,-100.00,South,180,4.0,7.0,85,0.00,,,-99.99,,2013-08-21 13:12:00,
2013-08-21 08:52:00,74.0,68.0,-100.00,South,185,6.0,8.0,80,0.00,,,-99.99,,2013-08-21 13:52:00,
2013-08-21 09:02:00,74.0,68.0,-100.00,South,185,6.0,8.0,80,0.00,,,-99.99,,2013-08-21 14:02:00,
2013-08-21 09:11:00,74.0,68.0,-100.00,South,185,6.0,8.0,80,0.00,,,-99.99,,2013-08-21 14:11:00,
2013-08-21 09:52:00,78.0,67.0,-100.00,SSW,210,7.0,14.0,68,0.00,,,-99.99,,2013-08-21 14:52:00,
2013-08-21 10:01:00,78.0,67.0,-100.00,SSW,210,7.0,14.0,68,0.00,,,-99.99,,2013-08-21 15:01:00,
2013-08-21 10:11:00,78.0,67.0,-100.00,SSW,210,7.0,14.0,68,0.00,,,-99.99,,2013-08-21 15:11:00,
2013-08-21 10:55:00,81.0,67.0,-100.00,SSW,200,8.0,14.0,64,0.00,,,-99.99,,2013-08-21 15:55:00,
2013-08-21 11:04:00,81.0,67.0,-100.00,SSW,200,8.0,14.0,64,0.00,,,-99.99,,2013-08-21 16:04:00,
2013-08-21 11:13:00,81.0,67.0,-100.00,SSW,200,8.0,14.0,64,0.00,,,-99.99,,2013-08-21 16:13:00,
2013-08-21 11:53:00,81.0,67.0,-100.00,SSW,210,10.0,14.0,62,0.00,,,-99.99,,2013-08-21 16:53:00,
2013-08-21 12:04:00,81.0,67.0,-100.00,SSW,210,10.0,14.0,62,0.00,,,-99.99,,2013-08-21 17:04:00,
2013-08-21 12:13:00,81.0,67.0,-100.00,SSW,210,10.0,14.0,62,0.00,,,-99.99,,2013-08-21 17:13:00,
2013-08-21 12:53:00,86.0,67.0,-100.00,SW,215,9.0,17.0,53,0.00,,,-99.99,,2013-08-21 17:53:00,
2013-08-21 13:02:00,86.0,67.0,-100.00,SW,215,9.0,17.0,53,0.00,,,-99.99,,2013-08-21 18:02:00,
2013-08-21 13:12:00,86.0,67.0,-100.00,SW,215,9.0,17.0,53,0.00,,,-99.99,,2013-08-21 18:12:00,
2013-08-21 13:52:00,87.0,66.0,-100.00,SW,230,14.0,22.0,49,0.00,,,-99.99,,2013-08-21 18:52:00,
2013-08-21 14:01:00,87.0,66.0,-100.00,SW,230,14.0,22.0,49,0.00,,,-99.99,,2013-08-21 19:01:00,
2013-08-21 14:12:00,87.0,66.0,-100.00,SW,230,14.0,22.0,49,0.00,,,-99.99,,2013-08-21 19:12:00,
2013-08-21 14:52:00,89.0,66.0,-100.00,SW,235,11.0,21.0,48,0.00,,,-99.99,,2013-08-21 19:52:00,
2013-08-21 15:03:00,89.0,66.0,-100.00,SW,235,11.0,21.0,48,0.00,,,-99.99,,2013-08-21 20:03:00,
2013-08-21 15:11:00,89.0,66.0,-100.00,SW,235,11.0,21.0,48,0.00,,,-99.99,,2013-08-21 20:11:00,
2013-08-21 15:52:00,89.0,66.0,-100.00,SSW,205,14.0,24.0,47,0.00,,,-99.99,,2013-08-21 20:52:00,
2013-08-21 16:02:00,89.0,66.0,-100.00,SSW,205,14.0,24.0,47,0.00,,,-99.99,,2013-08-21 21:02:00,
2013-08-21 16:12:00,89.0,66.0,-100.00,SSW,205,14.0,24.0,47,0.00,,,-99.99,,2013-08-21 21:12:00,
2013-08-21 16:14:00,89.0,66.0,-100.00,SSW,205,12.0,26.0,47,0.00,,,-99.99,,2013-08-21 21:14:00,
2013-08-21 16:55:00,89.0,66.0,-100.00,SSW,205,12.0,26.0,47,0.00,,,-99.99,,2013-08-21 21:55:00,
2013-08-21 17:04:00,89.0,66.0,-100.00,SSW,205,12.0,26.0,47,0.00,,,-99.99,,2013-08-21 22:04:00,
2013-08-21 17:53:00,87.0,67.0,-100.00,SW,230,10.0,21.0,53,0.00,,,-99.99,,2013-08-21 22:53:00,
2013-08-21 18:04:00,87.0,67.0,-100.00,SW,230,10.0,21.0,53,0.00,,,-99.99,,2013-08-21 23:04:00,
2013-08-21 18:13:00,87.0,67.0,-100.00,SW,230,10.0,21.0,53,0.00,,,-99.99,,2013-08-21 23:13:00,
2013-08-21 18:53:00,85.0,68.0,-100.00,WSW,250,9.0,17.0,58,0.00,,,-99.99,,2013-08-21 23:53:00,
2013-08-21 19:02:00,85.0,68.0,-100.00,WSW,250,9.0,17.0,58,0.00,,,-99.99,,2013-08-22 00:02:00,
2013-08-21 19:12:00,85.0,68.0,-100.00,WSW,250,9.0,17.0,58,0.00,,,-99.99,,2013-08-22 00:12:00,
2013-08-21 19:52:00,84.0,70.0,-100.00,WSW,250,7.0,12.0,63,0.00,,,-99.99,,2013-08-22 00:52:00,
2013-08-21 20:02:00,84.0,70.0,-100.00,WSW,250,7.0,12.0,63,0.00,,,-99.99,,2013-08-22 01:02:00,
2013-08-21 20:11:00,84.0,70.0,-100.00,WSW,250,7.0,12.0,63,0.00,,,-99.99,,2013-08-22 01:11:00,
2013-08-21 20:52:00,82.0,70.0,-100.00,West,260,9.0,13.0,66,0.00,,,-99.99,,2013-08-22 01:52:00,
2013-08-21 21:03:00,82.0,70.0,-100.00,West,260,9.0,13.0,66,0.00,,,-99.99,,2013-08-22 02:03:00,
2013-08-21 21:12:00,82.0,70.0,-100.00,West,260,9.0,13.0,66,0.00,,,-99.99,,2013-08-22 02:12:00,
2013-08-21 22:12:00,74.0,71.0,-100.00,NNE,30,5.0,7.0,89,0.00,,,-99.99,,2013-08-22 03:12:00,
2013-08-21 22:54:00,72.0,69.0,-100.00,NE,50,3.0,4.0,91,0.00,,,-99.99,,2013-08-22 03:54:00,
2013-08-21 23:04:00,72.0,69.0,-100.00,NE,50,3.0,4.0,91,0.00,,,-99.99,,2013-08-22 04:04:00,
2013-08-21 23:14:00,72.0,69.0,-100.00,NE,50,3.0,4.0,91,0.00,,,-99.99,,2013-08-22 04:14:00,
2013-08-21 23:54:00,69.0,67.0,-100.00,ENE,70,4.0,7.0,91,0.00,,,-99.99,,2013-08-22 04:54:00,